Location: Berg
(47.2344°N, 9.5296°E)
Time: 23:00:39
(UTC+00:00)

AAUSAT CUBESAT 2 - Pass Details

Date: 05 December 2021
Orbit: 571 x 586 km, 97.5° (Epoch: 19 January)

Event Time Altitude Azimuth Distance (km) Brightness Sun altitude
Rises 16:22:58 0° 194° (SSW) 2,767 ? -8.4°
Reaches altitude 10° 16:25:21 10° 207° (SSW) 1,874 ? -8.7°
Maximum altitude 16:28:49 27° 265° (W) 1,124 ? -9.3°
Drops below altitude 10° 16:32:19 10° 324° (NW) 1,887 ? -9.8°
Sets 16:34:44 0° 337° (NNW) 2,791 ? -10.2°
